Temp
-5 -5 -4 -4 -4 -4 -4 -4 -4 -4 -5 -5 -5 -5 -5 -6 -6 -5 -5 -5 -6 -6 -6 -6 -7 -7 -7 -7 -8 -8 -8 -8 -8 -8 -8 -8 -8 -8 -9 -8 -8 -9 -8
-4 -4 -4 -4 -5 -4 -4 -4 -4 -5 -5 -5 -5 -5 -5 -5 -5 -5 -5 -5 -6 -6 -6 -6 -6 -7 -7 -7 -7 -7 -8 -8 -8 -8 -8 -8 -8 -8 -8 -8 -9 -9 -9
-4 -4 -4 -4 -4 -4 -4 -4 -4 -5 -5 -5 -5 -5 -5 -5 -5 -5 -5 -5 -5 -6 -6 -6 -7 -7 -7 -7 -7 -7 -7 -7 -8 -7 -7 -7 -8 -8 -8 -8 -9 -8 -8
-4 -4 -4 -4 -4 -4 -4 -4 -5 -5 -5 -5 -5 -5 -5 -5 -5 -5 -5 -6 -6 -5 -5 -6 -6 -6 -7 -7 -7 -7 -7 -7 -7 -7 -7 -5 -7 -8 -8 -8 -8 -8 -8
-5 -5 -4 -4 -4 -4 -4 -5 -5 -5 -5 -5 -5 -5 -5 -5 -5 -5 -5 -5 -6 -6 -6 -6 -6 -6 -6 -6 -6 -6 -7 -7 -7 -7 -7 -7 -6 -7 -8 -8 -8 -8 -8
-4 -5 -5 -4 -4 -4 -4 -4 -5 -5 -5 -4 -5 -5 -5 -5 -5 -5 -5 -6 -6 -6 -6 -6 -6 -6 -6 -6 -6 -6 -6 -7 -7 -7 -7 -7 -7 -5 -8 -8 -8 -8 -8
-4 -4 -4 -5 -4 -4 -4 -4 -4 -5 -5 -4 -5 -5 -5 -5 -5 -6 -6 -6 -6 -6 -6 -6 -7 -7 -7 -7 -7 -7 -6 -6 -7 -7 -7 -7 -7 -7 -7 -7 -8 -8 -8
-4 -4 -4 -4 -4 -4 -5 -5 -5 -5 -5 -5 -5 -5 -5 -5 -5 -6 -6 -6 -6 -6 -6 -7 -7 -7 -7 -7 -6 -6 -6 -6 -6 -7 -7 -7 -7 -7 -7 -7 -7 -7 -7
-4 -4 -4 -4 -4 -5 -5 -5 -5 -5 -5 -5 -5 -5 -5 -5 -5 -5 -6 -6 -6 -7 -7 -7 -7 -7 -7 -7 -6 -6 -6 -6 -6 -6 -6 -6 -7 -7 -7 -6 -6 -7 -7
-4 -4 -4 -4 -5 -5 -5 -5 -5 -5 -5 -5 -5 -5 -5 -5 -5 -5 -6 -6 -6 -6 -6 -7 -7 -7 -6 -6 -6 -6 -6 -6 -6 -6 -6 -6 -6 -6 -7 -6 -6 -6 -7
-4 -4 -4 -4 -4 -5 -5 -5 -5 -5 -5 -5 -5 -5 -5 -5 -5 -6 -6 -6 -6 -6 -7 -7 -7 -7 -6 -6 -6 -6 -6 -6 -6 -6 -6 -6 -6 -6 -6 -6 -6 -6 -6
-4 -3 -3 -4 -4 -5 -5 -5 -5 -5 -5 -5 -5 -5 -5 -5 -5 -6 -6 -6 -6 -6 -6 -7 -7 -7 -7 -4 -6 -6 -6 -6 -6 -6 -6 -6 -6 -6 -6 -6 -6 -6 -6
-4 -4 -4 -4 -5 -5 -5 -5 -5 -5 -5 -5 -5 -5 -5 -5 -6 -6 -6 -6 -6 -6 -6 -6 -7 -7 -6 -6 -6 -6 -7 -7 -6 -6 -6 -6 -6 -6 -6 -6 -6 -6 -6
-4 -4 -4 -4 -4 -5 -5 -5 -5 -5 -5 -5 -5 -5 -5 -5 -5 -5 -6 -6 -6 -6 -6 -6 -6 -7 -7 -6 -6 -7 -7 -6 -6 -7 -7 -7 -6 -6 -6 -6 -6 -6 -6
-4 -4 -4 -4 -4 -5 -5 -5 -5 -5 -5 -5 -5 -6 -6 -6 -6 -5 -5 -5 -6 -6 -6 -6 -6 -6 -7 -7 -7 -7 -7 -6 -6 -6 -7 -7 -6 -7 -6 -6 -6 -6 -6
-4 -4 -4 -4 -4 -4 -4 -5 -5 -5 -5 -5 -5 -6 -6 -6 -6 -6 -6 -6 -6 -6 -6 -6 -6 -6 -6 -6 -6 -7 -6 -7 -7 -6 -7 -6 -6 -6 -6 -6 -6 -6 -6
-4 -4 -4 -5 -5 -5 -5 -5 -5 -5 -5 -5 -5 -5 -5 -6 -6 -6 -6 -6 -6 -6 -6 -6 -7 -7 -6 -6 -6 -6 -6 -6 -6 -7 -6 -6 -6 -6 -6 -6 -6 -6 -6
-4 -4 -4 -5 -5 -5 -5 -5 -5 -5 -5 -5 -5 -5 -5 -5 -6 -6 -6 -6 -6 -6 -6 -6 -6 -6 -7 -7 -6 -6 -7 -7 -7 -6 -6 -6 -6 -6 -6 -6 -6 -6 -6
-5 -5 -5 -5 -5 -5 -5 -5 -5 -5 -5 -5 -5 -5 -5 -5 -5 -5 -6 -5 -6 -6 -6 -6 -6 -6 -6 -6 -6 -7 -7 -6 -6 -6 -6 -6 -6 -6 -6 -6 -6 -6 -6
-5 -5 -5 -5 -5 -5 -4 -4 -4 -4 -4 -5 -5 -5 -5 -5 -5 -6 -6 -6 -6 -6 -6 -6 -6 -6 -6 -6 -6 -7 -6 -6 -7 -6 -6 -6 -6 -6 -6 -6 -6 -6 -6
-4 -4 -4 -4 -5 -4 -4 -4 -4 -4 -4 -4 -4 -5 -5 -5 -5 -5 -6 -6 -6 -7 -7 -7 -6 -6 -6 -6 -6 -6 -7 -6 -6 -6 -6 -6 -6 -7 -7 -6 -7 -6 -6
-4 -4 -4 -4 -4 -4 -4 -4 -4 -4 -4 -4 -4 -4 -4 -5 -5 -5 -6 -6 -6 -6 -6 -7 -7 -7 -7 -7 -6 -6 -6 -6 -7 -7 -7 -6 -6 -6 -6 -6 -6 -7 -6
-4 -4 -4 -4 -4 -4 -4 -4 -4 -4 -4 -4 -4 -4 -4 -5 -5 -5 -6 -6 -6 -6 -6 -6 -7 -7 -7 -7 -7 -7 -6 -6 -7 -7 -6 -7 -6 -5 -5 -6 -6 -6 -7
-4 -4 -4 -4 -4 -4 -4 -4 -4 -5 -5 -4 -5 -5 -5 -4 -4 -4 -5 -5 -7 -6 -6 -6 -7 -7 -7 -7 -7 -6 -7 -7 -7 -7 -7 -6 -7 -7 -6 -6 -6 -7 -6
-4 -4 -4 -4 -4 -5 -5 -5 -5 -5 -5 -5 -5 -5 -5 -5 -5 -5 -5 -5 -5 -6 -6 -7 -7 -7 -7 -8 -8 -8 -6 -7 -8 -7 -8 -7 -6 -7 -7 -6 -5 -5 -6
-5 -5 -5 -5 -5 -5 -5 -5 -5 -5 -5 -5 -5 -5 -5 -5 -5 -5 -5 -5 -5 -6 -6 -6 -7 -7 -8 -7 -7 -8 -7 -7 -7 -7 -7 -8 -8 -6 -7 -7 -7 -6 -5
Height
5906 5906 5907 5907 5907 5907 5908 5907 5907 5908 5907 5907 5906 5906 5905 5905 5903 5902 5902 5902 5901 5901 5900 5898 5898 5896 5897 5897 5896 5895 5894 5894 5894 5895 5895 5896 5897 5899 5899 5901 5901 5902 5903
5908 5908 5908 5908 5907 5909 5909 5910 5909 5910 5909 5909 5909 5908 5908 5907 5905 5905 5904 5903 5903 5903 5903 5902 5901 5900 5899 5899 5900 5899 5897 5896 5897 5897 5898 5899 5900 5900 5900 5901 5902 5903 5904
5910 5910 5910 5909 5909 5911 5911 5911 5911 5912 5911 5911 5911 5910 5910 5909 5909 5908 5906 5905 5905 5904 5904 5904 5903 5902 5902 5901 5901 5902 5901 5900 5899 5900 5901 5901 5904 5903 5903 5903 5904 5904 5905
5911 5911 5910 5910 5911 5913 5913 5912 5913 5913 5913 5913 5912 5913 5912 5911 5911 5910 5909 5908 5907 5905 5905 5905 5904 5904 5903 5903 5902 5903 5903 5904 5904 5903 5903 5887 5909 5907 5906 5905 5905 5906 5907
5912 5911 5912 5913 5914 5914 5914 5915 5915 5915 5915 5915 5915 5915 5914 5914 5914 5913 5912 5911 5910 5909 5908 5908 5907 5906 5906 5905 5905 5904 5903 5904 5905 5905 5906 5908 5886 5913 5908 5908 5907 5908 5909
5913 5913 5914 5915 5915 5916 5917 5918 5917 5918 5918 5917 5917 5917 5916 5916 5916 5916 5915 5914 5913 5912 5911 5910 5910 5909 5908 5908 5908 5907 5906 5906 5906 5907 5907 5909 5911 5912 5911 5909 5910 5911 5911
5916 5916 5916 5917 5918 5919 5920 5920 5920 5920 5919 5919 5919 5919 5918 5918 5918 5918 5918 5917 5917 5916 5915 5913 5912 5911 5910 5910 5910 5909 5909 5909 5910 5909 5909 5910 5911 5913 5911 5910 5910 5911 5910
5918 5918 5918 5919 5920 5921 5922 5922 5921 5921 5921 5921 5921 5920 5919 5920 5920 5920 5920 5919 5919 5918 5917 5916 5915 5913 5912 5911 5911 5912 5911 5911 5911 5912 5911 5912 5912 5912 5912 5912 5911 5911 5911
5922 5921 5921 5921 5922 5923 5923 5923 5923 5923 5923 5923 5923 5922 5921 5921 5921 5921 5921 5921 5920 5920 5920 5919 5918 5916 5915 5914 5913 5913 5913 5914 5914 5915 5915 5914 5914 5913 5913 5913 5913 5912 5912
5923 5923 5922 5921 5922 5923 5924 5925 5925 5925 5925 5925 5924 5924 5923 5922 5922 5922 5922 5921 5921 5921 5921 5921 5919 5918 5916 5915 5916 5915 5915 5915 5915 5908 5918 5916 5916 5915 5914 5914 5914 5915 5914
5925 5924 5924 5923 5924 5925 5925 5926 5926 5926 5927 5927 5926 5925 5925 5924 5923 5923 5922 5922 5922 5921 5922 5922 5920 5919 5916 5914 5915 5916 5916 5917 5918 5918 5920 5919 5918 5917 5917 5916 5915 5915 5916
5925 5925 5924 5924 5924 5925 5926 5928 5928 5929 5929 5929 5928 5927 5927 5927 5926 5925 5924 5923 5922 5922 5921 5921 5921 5920 5918 5907 5917 5918 5919 5919 5920 5920 5920 5919 5919 5919 5918 5918 5918 5918 5917
5927 5927 5926 5926 5926 5925 5926 5928 5928 5929 5929 5929 5929 5928 5928 5928 5927 5925 5925 5925 5924 5923 5922 5922 5921 5920 5920 5920 5919 5919 5919 5920 5920 5921 5921 5921 5920 5920 5919 5919 5919 5919 5919
5928 5929 5929 5929 5928 5928 5928 5929 5929 5929 5929 5929 5929 5929 5929 5928 5928 5927 5926 5925 5925 5924 5924 5923 5922 5922 5921 5921 5920 5919 5919 5918 5920 5920 5920 5920 5920 5920 5920 5919 5919 5918 5918
5930 5930 5929 5930 5930 5929 5929 5929 5930 5930 5930 5929 5929 5929 5928 5928 5927 5927 5926 5925 5925 5925 5924 5923 5922 5922 5921 5921 5921 5919 5919 5919 5919 5919 5919 5919 5920 5920 5920 5920 5919 5919 5918
5930 5930 5930 5930 5930 5930 5930 5930 5930 5930 5929 5930 5929 5928 5928 5928 5927 5926 5925 5924 5924 5924 5923 5922 5923 5921 5920 5920 5919 5919 5919 5919 5918 5917 5917 5918 5919 5919 5919 5919 5919 5918 5918
5930 5930 5929 5929 5929 5930 5930 5929 5929 5929 5928 5928 5928 5928 5927 5926 5925 5924 5924 5922 5921 5921 5921 5920 5920 5920 5919 5919 5919 5919 5919 5919 5918 5917 5916 5916 5916 5917 5917 5917 5917 5917 5917
5930 5929 5928 5928 5928 5929 5929 5929 5928 5927 5927 5926 5926 5926 5925 5924 5924 5922 5921 5920 5919 5918 5917 5917 5918 5917 5917 5917 5918 5919 5914 5913 5917 5917 5915 5914 5914 5914 5914 5915 5915 5915 5914
5930 5929 5928 5928 5928 5929 5929 5929 5928 5926 5925 5925 5925 5924 5924 5923 5921 5919 5918 5917 5916 5915 5914 5914 5914 5914 5914 5914 5915 5910 5914 5909 5909 5915 5913 5912 5912 5912 5912 5912 5913 5913 5913
5930 5929 5928 5928 5928 5928 5928 5928 5928 5927 5926 5925 5924 5923 5922 5921 5920 5918 5916 5913 5912 5911 5910 5908 5907 5909 5910 5910 5912 5907 5907 5888 5902 5910 5912 5910 5909 5909 5909 5910 5909 5910 5910
5930 5930 5929 5929 5928 5929 5929 5928 5928 5926 5925 5924 5922 5921 5919 5918 5917 5915 5913 5911 5908 5907 5906 5905 5903 5902 5902 5903 5906 5908 5903 5901 5903 5907 5905 5903 5904 5903 5905 5907 5907 5907 5906
5932 5931 5930 5930 5929 5929 5928 5927 5926 5924 5923 5922 5920 5918 5916 5915 5913 5911 5910 5908 5906 5903 5902 5901 5899 5898 5897 5896 5897 5899 5901 5903 5902 5899 5892 5895 5899 5901 5899 5900 5902 5903 5903
5932 5932 5931 5930 5929 5928 5927 5926 5924 5923 5920 5919 5917 5916 5914 5912 5909 5906 5904 5902 5900 5898 5896 5897 5895 5893 5892 5890 5887 5891 5890 5894 5893 5892 5889 5873 5882 5894 5900 5886 5896 5896 5896
5932 5931 5930 5929 5929 5928 5926 5925 5923 5921 5918 5916 5914 5911 5908 5906 5904 5901 5899 5896 5893 5892 5890 5888 5888 5888 5885 5883 5881 5880 5882 5883 5884 5883 5884 5889 5879 5883 5892 5890 5886 5887 5887
5931 5930 5929 5927 5925 5923 5922 5919 5918 5916 5914 5912 5910 5908 5905 5902 5899 5896 5894 5891 5888 5884 5882 5880 5878 5878 5877 5877 5874 5873 5874 5875 5875 5874 5872 5876 5875 5879 5882 5876 5876 5882 5883
5930 5929 5927 5925 5922 5921 5919 5917 5914 5911 5909 5906 5903 5902 5900 5897 5894 5891 5887 5885 5881 5877 5874 5872 5871 5868 5867 5867 5867 5865 5865 5864 5867 5865 5865 5865 5866 5865 5868 5870 5872 5871 5870
Wind_Speed
12 12 13 14 14 12 13 14 14 16 18 18 19 17 17 16 15 14 13 11 11 12 16 16 17 18 18 18 17 18 18 17 16 14 13 13 14 14 15 13 13 13 12
10 11 13 15 14 12 10 15 15 15 16 17 17 17 16 16 15 14 14 12 11 10 13 18 17 17 15 16 17 16 17 18 17 16 14 14 13 14 14 12 12 11 10
11 12 15 16 15 13 12 15 15 15 16 17 15 16 16 15 14 13 13 13 14 12 11 14 15 17 17 17 16 16 17 17 18 19 21 22 14 13 12 13 11 10 9
12 12 15 16 14 12 14 16 15 15 16 15 14 14 14 14 14 13 14 14 15 15 14 13 15 17 17 15 16 15 14 14 15 18 22 18 17 15 12 11 11 9 8
13 14 15 14 13 14 16 15 14 15 15 15 13 13 13 14 14 13 14 13 14 14 14 14 15 16 17 16 14 14 14 13 14 14 15 18 9 8 12 11 11 10 9
12 12 13 13 12 13 14 14 13 14 13 14 13 12 12 13 13 13 14 13 12 13 12 13 12 15 16 14 13 12 13 11 11 12 13 13 20 7 9 9 8 8 8
10 11 11 11 11 12 12 12 12 13 13 13 13 12 13 11 11 12 12 13 12 12 11 11 11 10 11 11 11 10 11 12 10 9 11 11 11 10 9 9 8 7 6
9 11 11 10 11 11 10 11 12 12 12 11 11 12 12 11 10 10 11 12 12 11 12 12 11 10 9 9 9 10 8 10 11 8 10 11 11 11 9 8 9 7 7
8 9 10 10 10 11 11 10 11 10 9 8 8 9 9 9 8 8 7 8 9 9 7 8 7 9 10 6 7 8 8 7 10 9 9 9 10 12 11 10 8 7 7
7 7 8 9 11 10 10 10 9 8 7 6 5 7 7 7 6 5 5 5 5 5 3 2 3 7 8 3 5 7 9 8 9 7 5 10 10 11 11 11 10 8 6
6 7 8 8 8 10 10 10 9 7 6 5 5 4 5 5 5 4 4 4 3 3 2 4 7 10 13 7 8 7 10 9 8 8 6 6 8 8 8 8 8 8 7
6 6 7 7 7 9 10 9 8 7 5 4 3 3 2 3 3 2 3 4 4 3 1 2 4 9 14 8 10 10 8 7 8 6 5 5 6 6 6 5 5 6 7
5 5 7 7 7 8 9 10 10 8 6 5 3 1 1 2 3 1 1 4 4 5 3 2 1 5 9 11 11 7 4 2 2 2 3 3 3 4 4 5 5 3 4
5 4 4 4 3 2 4 7 8 8 7 7 7 5 5 4 3 2 2 1 5 5 6 4 2 1 2 3 5 5 2 2 5 2 5 4 3 3 2 2 3 3 3
4 4 3 2 1 1 3 5 6 7 8 8 8 8 7 6 7 6 6 6 5 6 7 8 6 4 4 3 4 6 7 6 5 6 7 4 7 5 4 5 5 4 4
3 3 2 1 2 3 4 6 6 7 8 9 9 10 10 11 11 11 11 11 10 9 9 11 10 10 8 7 8 8 7 7 8 8 9 7 6 8 6 6 6 6 7
4 4 3 4 4 5 6 7 8 9 10 10 11 12 13 14 15 15 16 16 16 16 14 13 12 12 13 13 10 10 9 9 10 11 10 9 10 11 10 9 10 8 8
4 3 3 3 3 4 5 5 7 8 10 12 12 14 14 15 16 18 19 20 19 20 21 20 18 16 17 18 17 13 14 12 14 16 15 12 11 13 14 13 12 12 11
0 1 1 2 2 2 4 5 8 9 9 9 10 10 11 12 14 17 19 21 22 24 25 25 24 22 21 21 21 23 22 15 15 19 19 19 17 16 17 17 16 15 15
2 3 4 5 3 4 5 6 6 7 7 8 10 12 14 15 15 17 19 23 23 23 25 28 29 27 26 25 24 27 25 12 15 23 23 21 21 20 19 19 19 19 18
4 5 6 8 4 2 5 5 7 9 9 10 12 14 15 18 20 20 21 22 23 25 25 27 28 30 30 29 27 27 29 30 28 27 27 28 27 25 21 21 22 22 21
4 4 6 6 5 6 7 8 9 11 12 13 12 14 16 19 22 22 24 26 25 26 25 27 29 30 30 32 33 31 31 31 32 33 31 25 32 30 25 24 25 26 23
5 5 7 9 10 10 10 12 13 13 15 17 17 16 17 20 22 25 27 31 29 31 31 28 29 31 31 33 36 33 36 32 34 36 37 35 22 31 21 27 29 29 31
8 8 9 10 12 14 16 17 17 17 17 19 18 20 23 22 24 25 26 30 30 34 33 34 32 32 35 36 36 34 35 36 36 39 41 39 43 24 32 37 31 31 31
15 15 16 18 21 22 24 26 24 23 23 22 22 23 24 25 27 28 27 29 31 35 34 35 35 34 35 36 38 38 35 37 36 40 44 42 44 38 36 37 39 37 34
19 20 21 22 23 24 26 25 25 26 25 27 29 28 28 28 29 29 31 31 32 35 37 37 38 37 36 37 42 43 43 44 42 44 41 41 45 45 41 41 40 37 38
Wind_Direction
90 96 108 113 105 106 113 109 101 96 91 93 92 95 97 94 92 86 86 82 88 81 81 80 91 100 100 94 97 107 100 97 101 100 95 93 97 98 95 99 97 93 91
91 103 110 105 100 105 112 114 109 104 97 97 99 97 101 98 96 98 95 90 77 70 88 78 81 91 91 92 91 102 107 102 98 99 98 89 87 86 86 85 86 83 84
111 111 117 111 106 108 114 118 118 111 103 106 109 101 99 100 101 99 98 93 68 64 87 78 79 81 84 84 86 96 96 104 106 101 95 74 76 82 82 83 82 81 83
107 114 113 109 108 114 122 124 122 115 111 114 116 115 103 101 101 101 94 89 73 68 72 72 73 81 82 80 79 79 87 90 99 105 99 91 92 79 76 76 75 68 68
99 108 117 116 110 112 123 123 124 115 119 118 122 124 114 101 99 95 94 93 86 80 76 76 72 78 81 80 78 77 76 78 80 88 92 98 200 75 85 78 77 73 67
96 104 113 116 114 120 125 125 121 122 119 119 118 119 115 104 104 97 98 99 100 92 85 80 74 73 70 80 85 86 85 85 84 86 88 91 116 202 99 99 93 81 78
105 102 107 112 116 123 126 127 128 126 119 120 116 117 112 111 109 101 101 105 103 103 97 96 84 65 60 73 79 88 97 97 99 103 106 104 98 105 105 104 104 102 100
109 106 111 119 126 135 140 135 133 131 122 120 112 111 113 109 112 110 108 108 108 108 108 103 78 66 59 80 81 81 95 102 105 105 115 124 116 108 108 109 118 119 125
112 111 115 123 134 151 153 152 143 139 132 122 122 120 110 107 113 118 119 113 113 113 106 129 79 65 62 74 96 89 97 98 102 100 114 116 120 123 121 112 114 129 131
119 108 110 128 148 157 162 157 150 151 146 137 128 123 112 104 113 124 124 117 120 126 134 283 94 44 22 58 137 106 112 113 112 102 159 135 136 135 138 135 133 129 137
109 102 96 112 149 164 170 163 165 163 154 146 148 144 131 123 139 146 143 150 136 126 106 29 61 41 9 336 209 163 129 120 121 135 128 136 141 141 147 149 145 147 143
134 116 107 114 145 164 171 172 178 182 174 153 128 127 158 129 139 160 185 184 189 189 138 86 78 50 42 8 223 160 141 132 131 138 133 126 129 143 150 153 158 172 161
149 136 115 119 142 158 169 176 184 189 194 193 202 182 138 175 177 80 120 221 221 225 231 168 124 72 75 94 130 160 157 211 172 136 163 148 153 168 160 158 156 171 165
153 132 109 97 87 133 178 189 193 195 204 215 225 245 262 266 269 253 295 255 228 241 240 242 204 215 142 133 159 183 225 175 185 241 211 201 196 220 214 233 207 191 192
178 167 153 150 170 219 225 222 218 220 219 222 234 250 259 266 280 290 286 273 270 250 241 241 264 251 221 204 198 170 196 211 232 227 198 241 246 241 231 238 253 251 248
225 223 221 251 258 258 264 261 255 251 252 255 253 255 266 277 278 275 276 277 272 259 248 245 254 266 248 234 228 229 231 229 222 210 213 235 251 230 239 239 231 246 249
248 254 269 279 275 272 274 278 278 276 271 266 263 266 270 273 278 281 281 280 279 276 264 255 247 244 244 248 251 245 244 252 239 230 224 241 248 237 239 256 246 242 248
267 269 278 285 283 287 295 296 297 292 281 274 273 272 274 275 276 277 276 275 272 272 274 271 263 255 242 241 246 250 246 238 255 249 240 239 249 249 246 242 256 257 248
326 243 319 310 314 324 325 331 332 329 304 301 297 291 286 284 286 286 284 282 280 278 275 272 271 266 259 255 249 248 251 245 245 252 249 253 253 252 252 254 260 267 268
30 48 37 15 277 286 334 352 7 15 8 344 327 318 309 302 300 294 291 288 283 280 279 281 280 276 271 265 260 259 256 224 246 256 260 254 253 252 247 251 256 261 262
65 56 51 34 41 28 349 339 333 332 332 329 326 319 312 305 299 298 296 295 287 281 281 280 281 283 283 279 271 263 266 267 264 261 259 259 258 254 255 255 256 258 262
58 38 16 18 10 347 327 318 316 317 318 313 311 316 314 317 312 307 301 298 293 284 282 281 278 280 284 283 278 273 265 258 261 258 256 269 261 259 254 256 261 264 261
347 338 332 328 319 315 313 313 313 311 306 305 313 309 313 299 318 312 311 303 302 295 293 285 277 274 277 284 284 273 271 270 266 265 263 263 259 254 264 260 262 262 265
313 312 306 308 310 312 314 310 306 303 301 305 309 305 306 313 312 314 315 309 300 299 296 293 287 281 281 280 282 281 272 271 271 270 265 261 255 266 254 258 256 259 259
308 310 313 317 322 322 321 316 312 309 308 308 305 305 302 306 310 307 306 309 306 299 297 291 290 287 283 278 278 279 269 267 272 273 272 271 264 264 268 268 267 263 261
310 312 316 318 317 313 308 304 304 307 309 310 309 307 303 302 305 306 305 304 308 305 296 296 287 290 283 278 278 277 279 273 273 272 268 267 267 268 259 257 259 260 262